owner,sensor,date,latitude,longitude,vertical_datum,sea_water_temperature,qcFlag 
NERRS,ioos:station:NOAA.NERRS:gndbcwq:1,2017-04-01T11:45:00Z,30.3836,-88.4364,0.0,23.2,2 
NERRS,ioos:station:NOAA.NERRS:gndbcwq:1,2017-04-01T12:45:00Z,30.3836,-88.4364,0.0,23.4,2 
NERRS,ioos:station:NOAA.NERRS:gndbcwq:1,2017-04-01T13:45:00Z,30.3836,-88.4364,0.0,23.6,2 
NERRS,ioos:station:NOAA.NERRS:gndbcwq:1,2017-04-01T14:45:00Z,30.3836,-88.4364,0.0,23.9,2 
NERRS,ioos:station:NOAA.NERRS:gndbcwq:1,2017-04-01T15:45:00Z,30.3836,-88.4364,0.0,24.3,2 
NERRS,ioos:station:NOAA.NERRS:gndbcwq:1,2017-04-01T16:45:00Z,30.3836,-88.4364,0.0,24.5,2 
NERRS,ioos:station:NOAA.NERRS:gndbcwq:1,2017-04-01T17:45:00Z,30.3836,-88.4364,0.0,25.0,2 
NERRS,ioos:station:NOAA.NERRS:gndbcwq:1,2017-04-01T18:45:00Z,30.3836,-88.4364,0.0,25.2,2 
NERRS,ioos:station:NOAA.NERRS:gndbcwq:1,2017-04-01T19:45:00Z,30.3836,-88.4364,0.0,25.5,2 
NERRS,ioos:station:NOAA.NERRS:gndbcwq:1,2017-04-01T20:45:00Z,30.3836,-88.4364,0.0,25.9,2 
NERRS,ioos:station:NOAA.NERRS:gndbcwq:1,2017-04-01T21:00:00Z,30.3836,-88.4364,0.0,26.3,2 
NERRS,ioos:station:NOAA.NERRS:gndbcwq:1,2017-04-02T12:45:00Z,30.3836,-88.4364,0.0,24.0,2 
NERRS,ioos:station:NOAA.NERRS:gndbcwq:1,2017-04-02T13:45:00Z,30.3836,-88.4364,0.0,24.0,2 
NERRS,ioos:station:NOAA.NERRS:gndbcwq:1,2017-04-02T14:45:00Z,30.3836,-88.4364,0.0,24.1,2 
NERRS,ioos:station:NOAA.NERRS:gndbcwq:1,2017-04-02T15:45:00Z,30.3836,-88.4364,0.0,24.2,2 
NERRS,ioos:station:NOAA.NERRS:gndbcwq:1,2017-04-02T16:45:00Z,30.3836,-88.4364,0.0,24.4,2 
NERRS,ioos:station:NOAA.NERRS:gndbcwq:1,2017-04-02T17:45:00Z,30.3836,-88.4364,0.0,24.4,2 
NERRS,ioos:station:NOAA.NERRS:gndbcwq:1,2017-04-02T18:45:00Z,30.3836,-88.4364,0.0,24.3,2 
NERRS,ioos:station:NOAA.NERRS:gndbcwq:1,2017-04-02T19:45:00Z,30.3836,-88.4364,0.0,24.3,2 
NERRS,ioos:station:NOAA.NERRS:gndbcwq:1,2017-04-02T20:15:00Z,30.3836,-88.4364,0.0,24.4,2 
NERRS,ioos:station:NOAA.NERRS:gndbcwq:1,2017-04-03T16:45:00Z,30.3836,-88.4364,0.0,22.7,2 
NERRS,ioos:station:NOAA.NERRS:gndbcwq:1,2017-04-03T17:45:00Z,30.3836,-88.4364,0.0,22.9,2 
NERRS,ioos:station:NOAA.NERRS:gndbcwq:1,2017-04-03T18:45:00Z,30.3836,-88.4364,0.0,23.2,2 
NERRS,ioos:station:NOAA.NERRS:gndbcwq:1,2017-04-03T19:45:00Z,30.3836,-88.4364,0.0,23.6,2 
NERRS,ioos:station:NOAA.NERRS:gndbcwq:1,2017-04-03T20:45:00Z,30.3836,-88.4364,0.0,24.0,2 
NERRS,ioos:station:NOAA.NERRS:gndbcwq:1,2017-04-03T21:45:00Z,30.3836,-88.4364,0.0,24.1,2 
NERRS,ioos:station:NOAA.NERRS:gndbcwq:1,2017-04-04T12:45:00Z,30.3836,-88.4364,0.0,22.9,2 
NERRS,ioos:station:NOAA.NERRS:gndbcwq:1,2017-04-04T13:45:00Z,30.3836,-88.4364,0.0,23.1,2 
NERRS,ioos:station:NOAA.NERRS:gndbcwq:1,2017-04-04T14:45:00Z,30.3836,-88.4364,0.0,23.2,2 
NERRS,ioos:station:NOAA.NERRS:gndbcwq:1,2017-04-04T15:45:00Z,30.3836,-88.4364,0.0,23.3,2 
NERRS,ioos:station:NOAA.NERRS:gndbcwq:1,2017-04-04T16:45:00Z,30.3836,-88.4364,0.0,24.3,2 
NERRS,ioos:station:NOAA.NERRS:gndbcwq:1,2017-04-04T17:45:00Z,30.3836,-88.4364,0.0,25.2,2 
NERRS,ioos:station:NOAA.NERRS:gndbcwq:1,2017-04-04T18:45:00Z,30.3836,-88.4364,0.0,25.2,2 
NERRS,ioos:station:NOAA.NERRS:gndbcwq:1,2017-04-04T19:45:00Z,30.3836,-88.4364,0.0,25.4,2 
NERRS,ioos:station:NOAA.NERRS:gndbcwq:1,2017-04-04T20:45:00Z,30.3836,-88.4364,0.0,25.4,2 
NERRS,ioos:station:NOAA.NERRS:gndbcwq:1,2017-04-06T12:45:00Z,30.3836,-88.4364,0.0,20.8,2 
NERRS,ioos:station:NOAA.NERRS:gndbcwq:1,2017-04-06T13:45:00Z,30.3836,-88.4364,0.0,20.6,2 
NERRS,ioos:station:NOAA.NERRS:gndbcwq:1,2017-04-06T14:45:00Z,30.3836,-88.4364,0.0,21.1,2 
NERRS,ioos:station:NOAA.NERRS:gndbcwq:1,2017-04-06T15:45:00Z,30.3836,-88.4364,0.0,21.5,2 
NERRS,ioos:station:NOAA.NERRS:gndbcwq:1,2017-04-06T16:45:00Z,30.3836,-88.4364,0.0,21.8,2 
NERRS,ioos:station:NOAA.NERRS:gndbcwq:1,2017-04-06T17:45:00Z,30.3836,-88.4364,0.0,22.4,2 
NERRS,ioos:station:NOAA.NERRS:gndbcwq:1,2017-04-06T18:45:00Z,30.3836,-88.4364,0.0,23.0,2 
NERRS,ioos:station:NOAA.NERRS:gndbcwq:1,2017-04-06T19:45:00Z,30.3836,-88.4364,0.0,23.4,2 
NERRS,ioos:station:NOAA.NERRS:gndbcwq:1,2017-04-06T20:45:00Z,30.3836,-88.4364,0.0,23.7,2 
NERRS,ioos:station:NOAA.NERRS:gndbcwq:1,2017-04-06T21:00:00Z,30.3836,-88.4364,0.0,23.5,2 
NERRS,ioos:station:NOAA.NERRS:gndbcwq:1,2017-04-07T11:45:00Z,30.3836,-88.4364,0.0,18.2,2 
NERRS,ioos:station:NOAA.NERRS:gndbcwq:1,2017-04-07T12:45:00Z,30.3836,-88.4364,0.0,18.5,2 
NERRS,ioos:station:NOAA.NERRS:gndbcwq:1,2017-04-07T13:45:00Z,30.3836,-88.4364,0.0,21.2,2 
NERRS,ioos:station:NOAA.NERRS:gndbcwq:1,2017-04-07T14:45:00Z,30.3836,-88.4364,0.0,21.3,2 
NERRS,ioos:station:NOAA.NERRS:gndbcwq:1,2017-04-07T15:45:00Z,30.3836,-88.4364,0.0,21.9,2 
NERRS,ioos:station:NOAA.NERRS:gndbcwq:1,2017-04-07T16:45:00Z,30.3836,-88.4364,0.0,22.5,2 
NERRS,ioos:station:NOAA.NERRS:gndbcwq:1,2017-04-07T17:45:00Z,30.3836,-88.4364,0.0,23.6,2 
NERRS,ioos:station:NOAA.NERRS:gndbcwq:1,2017-04-07T18:45:00Z,30.3836,-88.4364,0.0,24.3,2 
NERRS,ioos:station:NOAA.NERRS:gndbcwq:1,2017-04-07T19:45:00Z,30.3836,-88.4364,0.0,23.3,2 
NERRS,ioos:station:NOAA.NERRS:gndbcwq:1,2017-04-07T20:15:00Z,30.3836,-88.4364,0.0,22.9,2 
NERRS,ioos:station:NOAA.NERRS:gndbcwq:1,2017-04-08T12:45:00Z,30.3836,-88.4364,0.0,21.2,2 
NERRS,ioos:station:NOAA.NERRS:gndbcwq:1,2017-04-08T13:45:00Z,30.3836,-88.4364,0.0,20.8,2 
NERRS,ioos:station:NOAA.NERRS:gndbcwq:1,2017-04-08T14:45:00Z,30.3836,-88.4364,0.0,21.3,2 
NERRS,ioos:station:NOAA.NERRS:gndbcwq:1,2017-04-08T15:45:00Z,30.3836,-88.4364,0.0,21.4,2 
NERRS,ioos:station:NOAA.NERRS:gndbcwq:1,2017-04-08T16:45:00Z,30.3836,-88.4364,0.0,22.1,2 
NERRS,ioos:station:NOAA.NERRS:gndbcwq:1,2017-04-08T17:45:00Z,30.3836,-88.4364,0.0,22.5,2 
NERRS,ioos:station:NOAA.NERRS:gndbcwq:1,2017-04-08T18:45:00Z,30.3836,-88.4364,0.0,23.8,2 
NERRS,ioos:station:NOAA.NERRS:gndbcwq:1,2017-04-08T19:45:00Z,30.3836,-88.4364,0.0,24.3,2 
NERRS,ioos:station:NOAA.NERRS:gndbcwq:1,2017-04-08T20:30:00Z,30.3836,-88.4364,0.0,24.3,2 
NERRS,ioos:station:NOAA.NERRS:gndbcwq:1,2017-04-09T12:45:00Z,30.3836,-88.4364,0.0,21.6,2 
NERRS,ioos:station:NOAA.NERRS:gndbcwq:1,2017-04-09T13:45:00Z,30.3836,-88.4364,0.0,22.2,2 
NERRS,ioos:station:NOAA.NERRS:gndbcwq:1,2017-04-09T14:45:00Z,30.3836,-88.4364,0.0,22.1,2 
NERRS,ioos:station:NOAA.NERRS:gndbcwq:1,2017-04-09T15:45:00Z,30.3836,-88.4364,0.0,22.1,2 
NERRS,ioos:station:NOAA.NERRS:gndbcwq:1,2017-04-09T16:45:00Z,30.3836,-88.4364,0.0,22.7,2 
NERRS,ioos:station:NOAA.NERRS:gndbcwq:1,2017-04-09T17:45:00Z,30.3836,-88.4364,0.0,22.7,2 
NERRS,ioos:station:NOAA.NERRS:gndbcwq:1,2017-04-09T18:45:00Z,30.3836,-88.4364,0.0,23.8,2 
NERRS,ioos:station:NOAA.NERRS:gndbcwq:1,2017-04-09T19:45:00Z,30.3836,-88.4364,0.0,24.8,2 
NERRS,ioos:station:NOAA.NERRS:gndbcwq:1,2017-04-09T20:15:00Z,30.3836,-88.4364,0.0,25.2,2 
NERRS,ioos:station:NOAA.NERRS:gndbcwq:1,2017-04-10T12:45:00Z,30.3836,-88.4364,0.0,21.7,2 
NERRS,ioos:station:NOAA.NERRS:gndbcwq:1,2017-04-10T13:45:00Z,30.3836,-88.4364,0.0,22.2,2 
NERRS,ioos:station:NOAA.NERRS:gndbcwq:1,2017-04-10T14:45:00Z,30.3836,-88.4364,0.0,22.3,2 
NERRS,ioos:station:NOAA.NERRS:gndbcwq:1,2017-04-10T15:45:00Z,30.3836,-88.4364,0.0,22.7,2 
NERRS,ioos:station:NOAA.NERRS:gndbcwq:1,2017-04-10T16:45:00Z,30.3836,-88.4364,0.0,23.2,2 
NERRS,ioos:station:NOAA.NERRS:gndbcwq:1,2017-04-10T17:45:00Z,30.3836,-88.4364,0.0,24.6,2 
NERRS,ioos:station:NOAA.NERRS:gndbcwq:1,2017-04-10T18:45:00Z,30.3836,-88.4364,0.0,25.1,2 
NERRS,ioos:station:NOAA.NERRS:gndbcwq:1,2017-04-10T19:45:00Z,30.3836,-88.4364,0.0,25.3,2 
NERRS,ioos:station:NOAA.NERRS:gndbcwq:1,2017-04-10T20:15:00Z,30.3836,-88.4364,0.0,26.0,2 
NERRS,ioos:station:NOAA.NERRS:gndbcwq:1,2017-04-11T12:45:00Z,30.3836,-88.4364,0.0,23.3,2 
NERRS,ioos:station:NOAA.NERRS:gndbcwq:1,2017-04-11T13:45:00Z,30.3836,-88.4364,0.0,23.3,2 
NERRS,ioos:station:NOAA.NERRS:gndbcwq:1,2017-04-11T14:45:00Z,30.3836,-88.4364,0.0,23.4,2 
NERRS,ioos:station:NOAA.NERRS:gndbcwq:1,2017-04-11T15:45:00Z,30.3836,-88.4364,0.0,23.9,2 
NERRS,ioos:station:NOAA.NERRS:gndbcwq:1,2017-04-11T16:45:00Z,30.3836,-88.4364,0.0,24.8,2 
NERRS,ioos:station:NOAA.NERRS:gndbcwq:1,2017-04-11T17:45:00Z,30.3836,-88.4364,0.0,24.1,2 
NERRS,ioos:station:NOAA.NERRS:gndbcwq:1,2017-04-11T18:45:00Z,30.3836,-88.4364,0.0,24.9,2 
NERRS,ioos:station:NOAA.NERRS:gndbcwq:1,2017-04-11T19:45:00Z,30.3836,-88.4364,0.0,26.2,2 
NERRS,ioos:station:NOAA.NERRS:gndbcwq:1,2017-04-11T20:00:00Z,30.3836,-88.4364,0.0,26.4,2 
NERRS,ioos:station:NOAA.NERRS:gndbcwq:1,2017-04-12T12:45:00Z,30.3836,-88.4364,0.0,25.1,2 
NERRS,ioos:station:NOAA.NERRS:gndbcwq:1,2017-04-12T13:45:00Z,30.3836,-88.4364,0.0,24.7,2 
NERRS,ioos:station:NOAA.NERRS:gndbcwq:1,2017-04-12T14:45:00Z,30.3836,-88.4364,0.0,25.1,2 
NERRS,ioos:station:NOAA.NERRS:gndbcwq:1,2017-04-12T15:45:00Z,30.3836,-88.4364,0.0,24.9,2 
NERRS,ioos:station:NOAA.NERRS:gndbcwq:1,2017-04-12T16:45:00Z,30.3836,-88.4364,0.0,25.3,2 
NERRS,ioos:station:NOAA.NERRS:gndbcwq:1,2017-04-12T17:45:00Z,30.3836,-88.4364,0.0,26.0,2 
NERRS,ioos:station:NOAA.NERRS:gndbcwq:1,2017-04-12T18:45:00Z,30.3836,-88.4364,0.0,26.9,2 
NERRS,ioos:station:NOAA.NERRS:gndbcwq:1,2017-04-12T19:45:00Z,30.3836,-88.4364,0.0,27.3,2 
NERRS,ioos:station:NOAA.NERRS:gndbcwq:1,2017-04-13T12:45:00Z,30.3836,-88.4364,0.0,24.7,2 
NERRS,ioos:station:NOAA.NERRS:gndbcwq:1,2017-04-13T13:45:00Z,30.3836,-88.4364,0.0,24.9,2 
NERRS,ioos:station:NOAA.NERRS:gndbcwq:1,2017-04-13T14:45:00Z,30.3836,-88.4364,0.0,25.2,2 
NERRS,ioos:station:NOAA.NERRS:gndbcwq:1,2017-04-13T15:45:00Z,30.3836,-88.4364,0.0,25.3,2 
NERRS,ioos:station:NOAA.NERRS:gndbcwq:1,2017-04-13T16:45:00Z,30.3836,-88.4364,0.0,25.5,2 
NERRS,ioos:station:NOAA.NERRS:gndbcwq:1,2017-04-13T17:45:00Z,30.3836,-88.4364,0.0,26.0,2 
NERRS,ioos:station:NOAA.NERRS:gndbcwq:1,2017-04-13T18:45:00Z,30.3836,-88.4364,0.0,26.2,2 
NERRS,ioos:station:NOAA.NERRS:gndbcwq:1,2017-04-13T19:45:00Z,30.3836,-88.4364,0.0,26.9,2 
NERRS,ioos:station:NOAA.NERRS:gndbcwq:1,2017-04-14T12:45:00Z,30.3836,-88.4364,0.0,25.0,2 
NERRS,ioos:station:NOAA.NERRS:gndbcwq:1,2017-04-14T13:45:00Z,30.3836,-88.4364,0.0,25.0,2 
NERRS,ioos:station:NOAA.NERRS:gndbcwq:1,2017-04-14T14:45:00Z,30.3836,-88.4364,0.0,25.0,2 
NERRS,ioos:station:NOAA.NERRS:gndbcwq:1,2017-04-14T15:45:00Z,30.3836,-88.4364,0.0,25.0,2 
NERRS,ioos:station:NOAA.NERRS:gndbcwq:1,2017-04-14T16:45:00Z,30.3836,-88.4364,0.0,25.3,2 
NERRS,ioos:station:NOAA.NERRS:gndbcwq:1,2017-04-14T17:45:00Z,30.3836,-88.4364,0.0,25.6,2 
NERRS,ioos:station:NOAA.NERRS:gndbcwq:1,2017-04-14T18:45:00Z,30.3836,-88.4364,0.0,25.7,2 
NERRS,ioos:station:NOAA.NERRS:gndbcwq:1,2017-04-14T19:45:00Z,30.3836,-88.4364,0.0,26.2,2 
NERRS,ioos:station:NOAA.NERRS:gndbcwq:1,2017-04-14T20:00:00Z,30.3836,-88.4364,0.0,25.8,2 
NERRS,ioos:station:NOAA.NERRS:gndbcwq:1,2017-04-15T12:45:00Z,30.3836,-88.4364,0.0,24.1,2 
NERRS,ioos:station:NOAA.NERRS:gndbcwq:1,2017-04-15T13:45:00Z,30.3836,-88.4364,0.0,24.0,2 
NERRS,ioos:station:NOAA.NERRS:gndbcwq:1,2017-04-15T14:45:00Z,30.3836,-88.4364,0.0,23.7,2 
NERRS,ioos:station:NOAA.NERRS:gndbcwq:1,2017-04-15T15:45:00Z,30.3836,-88.4364,0.0,23.8,2 
NERRS,ioos:station:NOAA.NERRS:gndbcwq:1,2017-04-15T16:45:00Z,30.3836,-88.4364,0.0,24.0,2 
NERRS,ioos:station:NOAA.NERRS:gndbcwq:1,2017-04-15T17:45:00Z,30.3836,-88.4364,0.0,24.3,2 
NERRS,ioos:station:NOAA.NERRS:gndbcwq:1,2017-04-15T18:45:00Z,30.3836,-88.4364,0.0,24.5,2 
NERRS,ioos:station:NOAA.NERRS:gndbcwq:1,2017-04-15T19:45:00Z,30.3836,-88.4364,0.0,25.1,2 
NERRS,ioos:station:NOAA.NERRS:gndbcwq:1,2017-04-15T20:00:00Z,30.3836,-88.4364,0.0,25.1,2 
NERRS,ioos:station:NOAA.NERRS:gndbcwq:1,2017-04-16T13:45:00Z,30.3836,-88.4364,0.0,23.9,2 
NERRS,ioos:station:NOAA.NERRS:gndbcwq:1,2017-04-16T14:45:00Z,30.3836,-88.4364,0.0,24.0,2 
NERRS,ioos:station:NOAA.NERRS:gndbcwq:1,2017-04-16T15:45:00Z,30.3836,-88.4364,0.0,24.1,2 
NERRS,ioos:station:NOAA.NERRS:gndbcwq:1,2017-04-16T16:45:00Z,30.3836,-88.4364,0.0,24.4,2 
NERRS,ioos:station:NOAA.NERRS:gndbcwq:1,2017-04-16T17:45:00Z,30.3836,-88.4364,0.0,24.4,2 
NERRS,ioos:station:NOAA.NERRS:gndbcwq:1,2017-04-16T18:15:00Z,30.3836,-88.4364,0.0,24.7,2 
NERRS,ioos:station:NOAA.NERRS:gndbcwq:1,2017-04-17T12:45:00Z,30.3836,-88.4364,0.0,24.3,2 
NERRS,ioos:station:NOAA.NERRS:gndbcwq:1,2017-04-17T13:45:00Z,30.3836,-88.4364,0.0,24.6,2 
NERRS,ioos:station:NOAA.NERRS:gndbcwq:1,2017-04-17T14:45:00Z,30.3836,-88.4364,0.0,24.9,2 
NERRS,ioos:station:NOAA.NERRS:gndbcwq:1,2017-04-17T15:45:00Z,30.3836,-88.4364,0.0,25.2,2 
NERRS,ioos:station:NOAA.NERRS:gndbcwq:1,2017-04-17T16:45:00Z,30.3836,-88.4364,0.0,25.4,2 
NERRS,ioos:station:NOAA.NERRS:gndbcwq:1,2017-04-17T17:45:00Z,30.3836,-88.4364,0.0,25.8,2 
NERRS,ioos:station:NOAA.NERRS:gndbcwq:1,2017-04-17T18:45:00Z,30.3836,-88.4364,0.0,25.7,2 
NERRS,ioos:station:NOAA.NERRS:gndbcwq:1,2017-04-17T19:00:00Z,30.3836,-88.4364,0.0,26.0,2 
NERRS,ioos:station:NOAA.NERRS:gndbcwq:1,2017-04-18T13:45:00Z,30.3836,-88.4364,0.0,25.1,2 
NERRS,ioos:station:NOAA.NERRS:gndbcwq:1,2017-04-18T14:45:00Z,30.3836,-88.4364,0.0,25.4,2 
NERRS,ioos:station:NOAA.NERRS:gndbcwq:1,2017-04-18T15:45:00Z,30.3836,-88.4364,0.0,25.8,2 
NERRS,ioos:station:NOAA.NERRS:gndbcwq:1,2017-04-18T16:45:00Z,30.3836,-88.4364,0.0,26.6,2 
NERRS,ioos:station:NOAA.NERRS:gndbcwq:1,2017-04-18T17:45:00Z,30.3836,-88.4364,0.0,26.5,2 
NERRS,ioos:station:NOAA.NERRS:gndbcwq:1,2017-04-18T18:45:00Z,30.3836,-88.4364,0.0,26.7,2 
NERRS,ioos:station:NOAA.NERRS:gndbcwq:1,2017-04-18T19:30:00Z,30.3836,-88.4364,0.0,26.8,2 
NERRS,ioos:station:NOAA.NERRS:gndbcwq:1,2017-04-19T12:45:00Z,30.3836,-88.4364,0.0,24.7,2 
NERRS,ioos:station:NOAA.NERRS:gndbcwq:1,2017-04-19T13:45:00Z,30.3836,-88.4364,0.0,25.3,2 
NERRS,ioos:station:NOAA.NERRS:gndbcwq:1,2017-04-19T14:45:00Z,30.3836,-88.4364,0.0,25.6,2 
NERRS,ioos:station:NOAA.NERRS:gndbcwq:1,2017-04-19T15:45:00Z,30.3836,-88.4364,0.0,26.2,2 
NERRS,ioos:station:NOAA.NERRS:gndbcwq:1,2017-04-19T16:45:00Z,30.3836,-88.4364,0.0,26.4,2 
NERRS,ioos:station:NOAA.NERRS:gndbcwq:1,2017-04-19T17:45:00Z,30.3836,-88.4364,0.0,26.6,2 
NERRS,ioos:station:NOAA.NERRS:gndbcwq:1,2017-04-19T18:45:00Z,30.3836,-88.4364,0.0,26.9,2 
NERRS,ioos:station:NOAA.NERRS:gndbcwq:1,2017-04-19T19:45:00Z,30.3836,-88.4364,0.0,26.6,2 
NERRS,ioos:station:NOAA.NERRS:gndbcwq:1,2017-04-20T12:45:00Z,30.3836,-88.4364,0.0,25.6,2 
NERRS,ioos:station:NOAA.NERRS:gndbcwq:1,2017-04-20T13:45:00Z,30.3836,-88.4364,0.0,25.9,2 
NERRS,ioos:station:NOAA.NERRS:gndbcwq:1,2017-04-20T14:45:00Z,30.3836,-88.4364,0.0,26.4,2 
NERRS,ioos:station:NOAA.NERRS:gndbcwq:1,2017-04-20T15:45:00Z,30.3836,-88.4364,0.0,26.9,2 
NERRS,ioos:station:NOAA.NERRS:gndbcwq:1,2017-04-20T16:45:00Z,30.3836,-88.4364,0.0,27.1,2 
NERRS,ioos:station:NOAA.NERRS:gndbcwq:1,2017-04-20T17:45:00Z,30.3836,-88.4364,0.0,27.7,2 
NERRS,ioos:station:NOAA.NERRS:gndbcwq:1,2017-04-20T18:45:00Z,30.3836,-88.4364,0.0,27.8,2 
NERRS,ioos:station:NOAA.NERRS:gndbcwq:1,2017-04-20T19:45:00Z,30.3836,-88.4364,0.0,28.0,2 
NERRS,ioos:station:NOAA.NERRS:gndbcwq:1,2017-04-21T12:45:00Z,30.3836,-88.4364,0.0,26.0,2 
NERRS,ioos:station:NOAA.NERRS:gndbcwq:1,2017-04-21T13:45:00Z,30.3836,-88.4364,0.0,26.5,2 
NERRS,ioos:station:NOAA.NERRS:gndbcwq:1,2017-04-21T14:45:00Z,30.3836,-88.4364,0.0,27.0,2 
NERRS,ioos:station:NOAA.NERRS:gndbcwq:1,2017-04-21T15:45:00Z,30.3836,-88.4364,0.0,27.5,2 
NERRS,ioos:station:NOAA.NERRS:gndbcwq:1,2017-04-21T16:45:00Z,30.3836,-88.4364,0.0,28.1,2 
NERRS,ioos:station:NOAA.NERRS:gndbcwq:1,2017-04-21T17:45:00Z,30.3836,-88.4364,0.0,28.2,2 
NERRS,ioos:station:NOAA.NERRS:gndbcwq:1,2017-04-21T18:45:00Z,30.3836,-88.4364,0.0,28.8,2 
NERRS,ioos:station:NOAA.NERRS:gndbcwq:1,2017-04-21T19:45:00Z,30.3836,-88.4364,0.0,28.5,2 
NERRS,ioos:station:NOAA.NERRS:gndbcwq:1,2017-04-21T20:00:00Z,30.3836,-88.4364,0.0,28.7,2 
NERRS,ioos:station:NOAA.NERRS:gndbcwq:1,2017-04-22T12:45:00Z,30.3836,-88.4364,0.0,26.4,2 
NERRS,ioos:station:NOAA.NERRS:gndbcwq:1,2017-04-22T13:45:00Z,30.3836,-88.4364,0.0,26.6,2 
NERRS,ioos:station:NOAA.NERRS:gndbcwq:1,2017-04-22T14:45:00Z,30.3836,-88.4364,0.0,26.9,2 
NERRS,ioos:station:NOAA.NERRS:gndbcwq:1,2017-04-22T15:45:00Z,30.3836,-88.4364,0.0,27.2,2 
NERRS,ioos:station:NOAA.NERRS:gndbcwq:1,2017-04-22T17:15:00Z,30.3836,-88.4364,0.0,27.7,2 
NERRS,ioos:station:NOAA.NERRS:gndbcwq:1,2017-04-22T18:45:00Z,30.3836,-88.4364,0.0,28.2,2 
NERRS,ioos:station:NOAA.NERRS:gndbcwq:1,2017-04-22T19:45:00Z,30.3836,-88.4364,0.0,28.6,2 
NERRS,ioos:station:NOAA.NERRS:gndbcwq:1,2017-04-22T20:00:00Z,30.3836,-88.4364,0.0,28.5,2 
NERRS,ioos:station:NOAA.NERRS:gndbcwq:1,2017-04-23T12:45:00Z,30.3836,-88.4364,0.0,25.5,2 
NERRS,ioos:station:NOAA.NERRS:gndbcwq:1,2017-04-23T13:45:00Z,30.3836,-88.4364,0.0,25.5,2 
NERRS,ioos:station:NOAA.NERRS:gndbcwq:1,2017-04-23T14:45:00Z,30.3836,-88.4364,0.0,25.4,2 
NERRS,ioos:station:NOAA.NERRS:gndbcwq:1,2017-04-23T15:45:00Z,30.3836,-88.4364,0.0,25.1,2 
NERRS,ioos:station:NOAA.NERRS:gndbcwq:1,2017-04-23T16:45:00Z,30.3836,-88.4364,0.0,25.3,2 
NERRS,ioos:station:NOAA.NERRS:gndbcwq:1,2017-04-23T17:45:00Z,30.3836,-88.4364,0.0,25.6,2 
NERRS,ioos:station:NOAA.NERRS:gndbcwq:1,2017-04-23T18:45:00Z,30.3836,-88.4364,0.0,26.2,2 
NERRS,ioos:station:NOAA.NERRS:gndbcwq:1,2017-04-23T19:45:00Z,30.3836,-88.4364,0.0,26.8,2 
NERRS,ioos:station:NOAA.NERRS:gndbcwq:1,2017-04-23T20:45:00Z,30.3836,-88.4364,0.0,26.7,2 
NERRS,ioos:station:NOAA.NERRS:gndbcwq:1,2017-04-24T11:45:00Z,30.3836,-88.4364,0.0,22.7,2 
NERRS,ioos:station:NOAA.NERRS:gndbcwq:1,2017-04-24T12:45:00Z,30.3836,-88.4364,0.0,22.7,2 
NERRS,ioos:station:NOAA.NERRS:gndbcwq:1,2017-04-24T13:45:00Z,30.3836,-88.4364,0.0,23.0,2 
NERRS,ioos:station:NOAA.NERRS:gndbcwq:1,2017-04-24T14:45:00Z,30.3836,-88.4364,0.0,23.3,2 
NERRS,ioos:station:NOAA.NERRS:gndbcwq:1,2017-04-24T15:45:00Z,30.3836,-88.4364,0.0,23.6,2 
NERRS,ioos:station:NOAA.NERRS:gndbcwq:1,2017-04-24T16:45:00Z,30.3836,-88.4364,0.0,24.1,2 
NERRS,ioos:station:NOAA.NERRS:gndbcwq:1,2017-04-24T17:45:00Z,30.3836,-88.4364,0.0,24.5,2 
NERRS,ioos:station:NOAA.NERRS:gndbcwq:1,2017-04-24T19:45:00Z,30.3836,-88.4364,0.0,25.8,2 
NERRS,ioos:station:NOAA.NERRS:gndbcwq:1,2017-04-24T20:45:00Z,30.3836,-88.4364,0.0,25.9,2 
NERRS,ioos:station:NOAA.NERRS:gndbcwq:1,2017-04-24T21:00:00Z,30.3836,-88.4364,0.0,25.9,2 
NERRS,ioos:station:NOAA.NERRS:gndbcwq:1,2017-04-25T12:45:00Z,30.3836,-88.4364,0.0,24.6,2 
NERRS,ioos:station:NOAA.NERRS:gndbcwq:1,2017-04-25T13:45:00Z,30.3836,-88.4364,0.0,24.5,2 
NERRS,ioos:station:NOAA.NERRS:gndbcwq:1,2017-04-25T14:45:00Z,30.3836,-88.4364,0.0,24.6,2 
NERRS,ioos:station:NOAA.NERRS:gndbcwq:1,2017-04-25T15:45:00Z,30.3836,-88.4364,0.0,24.5,2 
NERRS,ioos:station:NOAA.NERRS:gndbcwq:1,2017-04-25T16:45:00Z,30.3836,-88.4364,0.0,25.1,2 
NERRS,ioos:station:NOAA.NERRS:gndbcwq:1,2017-04-25T17:45:00Z,30.3836,-88.4364,0.0,25.8,2 
NERRS,ioos:station:NOAA.NERRS:gndbcwq:1,2017-04-25T18:45:00Z,30.3836,-88.4364,0.0,26.4,2 
NERRS,ioos:station:NOAA.NERRS:gndbcwq:1,2017-04-25T19:45:00Z,30.3836,-88.4364,0.0,26.7,2 
NERRS,ioos:station:NOAA.NERRS:gndbcwq:1,2017-04-25T20:00:00Z,30.3836,-88.4364,0.0,26.8,2 
NERRS,ioos:station:NOAA.NERRS:gndbcwq:1,2017-04-26T12:45:00Z,30.3836,-88.4364,0.0,22.9,2 
NERRS,ioos:station:NOAA.NERRS:gndbcwq:1,2017-04-26T13:45:00Z,30.3836,-88.4364,0.0,22.8,2 
NERRS,ioos:station:NOAA.NERRS:gndbcwq:1,2017-04-26T14:45:00Z,30.3836,-88.4364,0.0,22.8,2 
NERRS,ioos:station:NOAA.NERRS:gndbcwq:1,2017-04-26T15:45:00Z,30.3836,-88.4364,0.0,23.3,2 
NERRS,ioos:station:NOAA.NERRS:gndbcwq:1,2017-04-26T16:45:00Z,30.3836,-88.4364,0.0,24.0,2 
NERRS,ioos:station:NOAA.NERRS:gndbcwq:1,2017-04-26T17:45:00Z,30.3836,-88.4364,0.0,25.2,2 
NERRS,ioos:station:NOAA.NERRS:gndbcwq:1,2017-04-26T18:45:00Z,30.3836,-88.4364,0.0,26.1,2 
NERRS,ioos:station:NOAA.NERRS:gndbcwq:1,2017-04-26T19:45:00Z,30.3836,-88.4364,0.0,26.6,2 
NERRS,ioos:station:NOAA.NERRS:gndbcwq:1,2017-04-26T20:15:00Z,30.3836,-88.4364,0.0,26.5,2 
NERRS,ioos:station:NOAA.NERRS:gndbcwq:1,2017-04-27T14:45:00Z,30.3836,-88.4364,0.0,24.5,2 
NERRS,ioos:station:NOAA.NERRS:gndbcwq:1,2017-04-27T15:45:00Z,30.3836,-88.4364,0.0,24.4,2 
NERRS,ioos:station:NOAA.NERRS:gndbcwq:1,2017-04-27T16:45:00Z,30.3836,-88.4364,0.0,24.8,2 
NERRS,ioos:station:NOAA.NERRS:gndbcwq:1,2017-04-27T17:45:00Z,30.3836,-88.4364,0.0,24.9,2 
NERRS,ioos:station:NOAA.NERRS:gndbcwq:1,2017-04-27T18:45:00Z,30.3836,-88.4364,0.0,26.1,2 
NERRS,ioos:station:NOAA.NERRS:gndbcwq:1,2017-04-27T19:45:00Z,30.3836,-88.4364,0.0,27.8,2 
NERRS,ioos:station:NOAA.NERRS:gndbcwq:1,2017-04-27T20:15:00Z,30.3836,-88.4364,0.0,28.0,2 
NERRS,ioos:station:NOAA.NERRS:gndbcwq:1,2017-04-28T14:45:00Z,30.3836,-88.4364,0.0,26.1,2 
NERRS,ioos:station:NOAA.NERRS:gndbcwq:1,2017-04-28T15:45:00Z,30.3836,-88.4364,0.0,26.1,2 
NERRS,ioos:station:NOAA.NERRS:gndbcwq:1,2017-04-28T16:45:00Z,30.3836,-88.4364,0.0,26.3,2 
NERRS,ioos:station:NOAA.NERRS:gndbcwq:1,2017-04-28T17:45:00Z,30.3836,-88.4364,0.0,26.7,2 
NERRS,ioos:station:NOAA.NERRS:gndbcwq:1,2017-04-28T18:45:00Z,30.3836,-88.4364,0.0,27.2,2 
NERRS,ioos:station:NOAA.NERRS:gndbcwq:1,2017-04-28T19:30:00Z,30.3836,-88.4364,0.0,27.5,2 
NERRS,ioos:station:NOAA.NERRS:gndbcwq:1,2017-04-29T14:45:00Z,30.3836,-88.4364,0.0,25.9,2 
NERRS,ioos:station:NOAA.NERRS:gndbcwq:1,2017-04-29T15:45:00Z,30.3836,-88.4364,0.0,25.9,2 
NERRS,ioos:station:NOAA.NERRS:gndbcwq:1,2017-04-29T16:45:00Z,30.3836,-88.4364,0.0,26.1,2 
NERRS,ioos:station:NOAA.NERRS:gndbcwq:1,2017-04-29T17:45:00Z,30.3836,-88.4364,0.0,26.2,2 
NERRS,ioos:station:NOAA.NERRS:gndbcwq:1,2017-04-29T18:15:00Z,30.3836,-88.4364,0.0,26.4,2 
NERRS,ioos:station:NOAA.NERRS:gndbcwq:1,2017-04-29T19:15:00Z,30.3836,-88.4364,0.0,26.8,2 
 
DISCLAIMER: The Gulf of Mexico Coastal and Ocean Observing (GCOOS) Data Portal aggregates data from the regional data providers for the convenience of all data users. Data published on this website should not be used for navigation or certain other uses as we cannot guarantee data accuracy or availability. The data and delivery services are provided 'as is' without warranty of any kind. Data Source: Gulf of Mexico Coastal Ocean Observing System Data Portal (http://data.gcoos.org/) 
